| time (UTC) | temp F | wind direction | speed MPH | gust MPH | rain 1hr in | rain 24hr in | rain mn in | humidity % | barometer mb |
| 20260509113051 | 55 | 0 | 1.0 | 3.0 | 0.00 | 0.00 | 0.00 | 50 | 1016.3 |
| 20260509112541 | 55 | 0 | 0.0 | 0.0 | 0.00 | 0.00 | 0.00 | 51 | 1016.3 |
| 20260509112046 | 55 | 0 | 0.0 | 3.0 | 0.00 | 0.00 | 0.00 | 52 | 1016.3 |
| 20260509111549 | 55 | 0 | 0.0 | 6.0 | 0.00 | 0.00 | 0.00 | 54 | 1016.3 |
| 20260509111045 | 55 | 11 | 2.0 | 6.0 | 0.00 | 0.00 | 0.00 | 54 | 1016.5 |
| 20260509110541 | 56 | 352 | 3.0 | 8.0 | 0.00 | 0.00 | 0.00 | 54 | 1016.5 |
| 20260509110048 | 56 | 321 | 3.0 | 8.0 | 0.00 | 0.00 | 0.00 | 54 | 1016.5 |
| 20260509105542 | 56 | 34 | 2.0 | 5.0 | 0.00 | 0.00 | 0.00 | 52 | 1016.5 |
| 20260509105041 | 56 | 0 | 0.0 | 3.0 | 0.00 | 0.00 | 0.00 | 48 | 1016.4 |
| 20260509104549 | 56 | 0 | 0.0 | 3.0 | 0.00 | 0.00 | 0.00 | 49 | 1016.4 |
| 20260509104041 | 56 | 71 | 0.0 | 2.0 | 0.00 | 0.00 | 0.00 | 48 | 1016.3 |
| 20260509103541 | 56 | 0 | 0.0 | 4.0 | 0.00 | 0.00 | 0.00 | 49 | 1016.4 |
| 20260509103050 | 56 | 0 | 0.0 | 4.0 | 0.00 | 0.00 | 0.00 | 49 | 1016.4 |
| 20260509102541 | 56 | 67 | 0.0 | 3.0 | 0.00 | 0.00 | 0.00 | 50 | 1016.4 |
| 20260509102043 | 56 | 0 | 0.0 | 3.0 | 0.00 | 0.00 | 0.00 | 51 | 1016.5 |
| 20260509101548 | 56 | 0 | 0.0 | 2.0 | 0.00 | 0.00 | 0.00 | 50 | 1016.5 |
| 20260509101041 | 56 | 0 | 0.0 | 2.0 | 0.00 | 0.00 | 0.00 | 51 | 1016.5 |
| 20260509100542 | 56 | 0 | 0.0 | 3.0 | 0.00 | 0.00 | 0.00 | 51 | 1016.5 |
| 20260509100046 | 56 | 0 | 0.0 | 3.0 | 0.00 | 0.00 | 0.00 | 51 | 1016.5 |
| 20260509095542 | 56 | 109 | 1.0 | 3.0 | 0.00 | 0.00 | 0.00 | 51 | 1016.5 |
| 20260509095042 | 55 | 0 | 0.0 | 3.0 | 0.00 | 0.00 | 0.00 | 52 | 1016.6 |
| 20260509094552 | 55 | 0 | 0.0 | 4.0 | 0.00 | 0.00 | 0.00 | 53 | 1016.6 |
| 20260509094041 | 55 | 279 | 1.0 | 4.0 | 0.00 | 0.00 | 0.00 | 53 | 1016.7 |
| 20260509093543 | 55 | 0 | 1.0 | 6.0 | 0.00 | 0.00 | 0.00 | 54 | 1016.6 |
| 20260509093050 | 55 | 0 | 1.0 | 6.0 | 0.00 | 0.00 | 0.00 | 54 | 1016.7 |
| 20260509092541 | 55 | 13 | 3.0 | 7.0 | 0.00 | 0.00 | 0.00 | 54 | 1016.8 |
| 20260509092042 | 55 | 11 | 3.0 | 7.0 | 0.00 | 0.00 | 0.00 | 55 | 1016.7 |
| 20260509091555 | 54 | 360 | 1.0 | 4.0 | 0.00 | 0.00 | 0.00 | 56 | 1016.8 |
| 20260509091042 | 54 | 0 | 1.0 | 6.0 | 0.00 | 0.00 | 0.00 | 56 | 1016.8 |
| 20260509090541 | 54 | 36 | 2.0 | 6.0 | 0.00 | 0.00 | 0.00 | 56 | 1016.8 |
| 20260509090059 | 53 | 28 | 1.0 | 6.0 | 0.00 | 0.00 | 0.00 | 56 | 1016.9 |
| 20260509085544 | 53 | 0 | 0.0 | 5.0 | 0.00 | 0.00 | 0.00 | 55 | 1016.9 |
| 20260509085041 | 53 | 232 | 0.0 | 5.0 | 0.00 | 0.00 | 0.00 | 54 | 1016.9 |
| 20260509084550 | 52 | 352 | 2.0 | 5.0 | 0.00 | 0.00 | 0.00 | 56 | 1017.0 |
| 20260509084041 | 52 | 288 | 1.0 | 5.0 | 0.00 | 0.00 | 0.00 | 56 | 1017.0 |
| 20260509083542 | 52 | 296 | 1.0 | 6.0 | 0.00 | 0.00 | 0.00 | 56 | 1017.0 |
| 20260509083054 | 52 | 287 | 0.0 | 7.0 | 0.00 | 0.00 | 0.00 | 56 | 1017.0 |
| 20260509082541 | 52 | 256 | 2.0 | 7.0 | 0.00 | 0.00 | 0.00 | 55 | 1017.0 |
| 20260509082041 | 52 | 244 | 2.0 | 7.0 | 0.00 | 0.00 | 0.00 | 55 | 1017.0 |
| 20260509081550 | 52 | 304 | 4.0 | 8.0 | 0.00 | 0.00 | 0.00 | 54 | 1017.0 |
| 20260509081043 | 52 | 302 | 3.0 | 9.0 | 0.00 | 0.00 | 0.00 | 54 | 1017.1 |
| 20260509080541 | 52 | 265 | 3.0 | 10.0 | 0.00 | 0.00 | 0.00 | 53 | 1017.1 |
| 20260509080106 | 52 | 325 | 3.0 | 10.0 | 0.00 | 0.00 | 0.00 | 52 | 1017.2 |
| 20260509075541 | 52 | 294 | 4.0 | 10.0 | 0.00 | 0.00 | 0.00 | 51 | 1017.1 |
| 20260509075043 | 52 | 329 | 3.0 | 9.0 | 0.00 | 0.00 | 0.00 | 51 | 1017.2 |
| 20260509074551 | 52 | 281 | 3.0 | 9.0 | 0.00 | 0.00 | 0.00 | 49 | 1017.1 |
| 20260509074045 | 51 | 246 | 4.0 | 8.0 | 0.00 | 0.00 | 0.00 | 46 | 1017.2 |
| 20260509073542 | 51 | 252 | 5.0 | 8.0 | 0.00 | 0.00 | 0.00 | 47 | 1017.2 |
| 20260509073102 | 51 | 252 | 3.0 | 9.0 | 0.00 | 0.00 | 0.00 | 48 | 1017.2 |
| 20260509072542 | 51 | 259 | 4.0 | 11.0 | 0.00 | 0.00 | 0.00 | 49 | 1017.4 |
| 20260509072041 | 51 | 260 | 5.0 | 11.0 | 0.00 | 0.00 | 0.00 | 49 | 1017.4 |
| 20260509071551 | 51 | 243 | 4.0 | 11.0 | 0.00 | 0.00 | 0.00 | 50 | 1017.3 |
| 20260509071041 | 51 | 225 | 6.0 | 11.0 | 0.00 | 0.00 | 0.00 | 51 | 1017.2 |
| 20260509070541 | 51 | 267 | 4.0 | 12.0 | 0.00 | 0.00 | 0.00 | 54 | 1017.3 |
| 20260509070055 | 51 | 154 | 4.0 | 12.0 | 0.00 | 0.00 | 0.00 | 56 | 1017.2 |
| 20260509065541 | 52 | 173 | 6.0 | 12.0 | 0.00 | 0.00 | 0.00 | 56 | 1017.3 |
| 20260509065040 | 52 | 153 | 6.0 | 11.0 | 0.00 | 0.00 | 0.00 | 52 | 1017.3 |
| 20260509064552 | 52 | 157 | 2.0 | 6.0 | 0.00 | 0.00 | 0.00 | 44 | 1017.1 |
| 20260509064042 | 52 | 0 | 2.0 | 5.0 | 0.00 | 0.00 | 0.00 | 46 | 1017.0 |
| 20260509063544 | 52 | 113 | 2.0 | 4.0 | 0.00 | 0.00 | 0.00 | 45 | 1017.1 |
| 20260509063100 | 52 | 105 | 2.0 | 4.0 | 0.00 | 0.00 | 0.00 | 45 | 1017.1 |
| 20260509062541 | 51 | 112 | 1.0 | 4.0 | 0.00 | 0.00 | 0.00 | 47 | 1017.1 |
| 20260509062041 | 51 | 106 | 2.0 | 4.0 | 0.00 | 0.00 | 0.00 | 47 | 1017.0 |
| 20260509061546 | 51 | 0 | 1.0 | 4.0 | 0.00 | 0.00 | 0.00 | 48 | 1017.0 |
| 20260509061041 | 51 | 106 | 0.0 | 4.0 | 0.00 | 0.00 | 0.00 | 50 | 1017.0 |
| 20260509060542 | 50 | 107 | 1.0 | 4.0 | 0.00 | 0.00 | 0.00 | 49 | 1017.0 |
| 20260509060054 | 50 | 0 | 1.0 | 4.0 | 0.00 | 0.00 | 0.00 | 49 | 1017.1 |
| 20260509055541 | 50 | 0 | 0.0 | 4.0 | 0.00 | 0.00 | 0.00 | 50 | 1017.1 |
| 20260509055040 | 50 | 98 | 0.0 | 3.0 | 0.00 | 0.00 | 0.00 | 51 | 1017.1 |
| 20260509054553 | 49 | 0 | 0.0 | 4.0 | 0.00 | 0.00 | 0.00 | 51 | 1017.1 |
| 20260509054040 | 49 | 0 | 1.0 | 4.0 | 0.00 | 0.00 | 0.00 | 51 | 1017.1 |
| 20260509053541 | 49 | 98 | 1.0 | 4.0 | 0.00 | 0.00 | 0.00 | 50 | 1017.2 |
| 20260509053048 | 49 | 123 | 0.0 | 3.0 | 0.00 | 0.00 | 0.00 | 53 | 1017.1 |
| 20260509052542 | 48 | 0 | 0.0 | 3.0 | 0.00 | 0.00 | 0.00 | 53 | 1017.1 |
| 20260509052041 | 48 | 134 | 0.0 | 3.0 | 0.00 | 0.00 | 0.00 | 53 | 1017.1 |
| 20260509051547 | 48 | 0 | 0.0 | 2.0 | 0.00 | 0.00 | 0.00 | 55 | 1017.2 |
| 20260509051043 | 48 | 0 | 0.0 | 2.0 | 0.00 | 0.00 | 0.00 | 54 | 1017.1 |
| 20260509050543 | 48 | 0 | 0.0 | 2.0 | 0.00 | 0.00 | 0.00 | 54 | 1017.1 |
| 20260509050059 | 47 | 0 | 0.0 | 0.0 | 0.00 | 0.00 | 0.00 | 57 | 1017.1 |
| 20260509045543 | 47 | 0 | 0.0 | 1.0 | 0.00 | 0.00 | 0.00 | 57 | 1017.1 |
| 20260509045043 | 47 | 0 | 0.0 | 1.0 | 0.00 | 0.00 | 0.00 | 57 | 1017.2 |
| 20260509044556 | 47 | 0 | 0.0 | 1.0 | 0.00 | 0.00 | 0.00 | 55 | 1017.2 |
| 20260509044044 | 47 | 0 | 0.0 | 2.0 | 0.00 | 0.00 | 0.00 | 56 | 1017.2 |
| 20260509043542 | 47 | 0 | 0.0 | 2.0 | 0.00 | 0.00 | 0.00 | 56 | 1017.2 |
| 20260509043101 | 47 | 0 | 0.0 | 2.0 | 0.00 | 0.00 | 0.00 | 56 | 1017.2 |
| 20260509042543 | 46 | 215 | 0.0 | 0.0 | 0.00 | 0.00 | 0.00 | 56 | 1017.3 |
| 20260509042043 | 46 | 0 | 0.0 | 3.0 | 0.00 | 0.00 | 0.00 | 57 | 1017.2 |
| 20260509041553 | 46 | 0 | 0.0 | 3.0 | 0.00 | 0.00 | 0.00 | 57 | 1017.3 |
| 20260509041043 | 46 | 215 | 0.0 | 3.0 | 0.00 | 0.00 | 0.00 | 58 | 1017.2 |
| 20260509040546 | 46 | 0 | 0.0 | 0.0 | 0.00 | 0.00 | 0.00 | 57 | 1017.2 |
| 20260509040051 | 46 | 0 | 0.0 | 0.0 | 0.00 | 0.00 | 0.00 | 56 | 1017.3 |
| 20260509035543 | 46 | 0 | 0.0 | 0.0 | 0.00 | 0.00 | 0.00 | 56 | 1017.3 |
| 20260509035043 | 46 | 0 | 0.0 | 0.0 | 0.00 | 0.00 | 0.00 | 56 | 1017.3 |
| 20260509034547 | 46 | 0 | 0.0 | 0.0 | 0.00 | 0.00 | 0.00 | 56 | 1017.2 |
| 20260509034044 | 46 | 0 | 0.0 | 0.0 | 0.00 | 0.00 | 0.00 | 56 | 1017.2 |
| 20260509033543 | 46 | 0 | 0.0 | 0.0 | 0.00 | 0.00 | 0.00 | 55 | 1017.2 |
| 20260509033105 | 46 | 0 | 0.0 | 0.0 | 0.00 | 0.00 | 0.00 | 55 | 1017.2 |
| 20260509032543 | 46 | 0 | 0.0 | 0.0 | 0.00 | 0.00 | 0.00 | 54 | 1017.2 |
| 20260509032042 | 46 | 0 | 0.0 | 0.0 | 0.00 | 0.00 | 0.00 | 54 | 1017.3 |
| 20260509031555 | 46 | 0 | 0.0 | 0.0 | 0.00 | 0.00 | 0.00 | 54 | 1017.3 |
| 20260509031043 | 46 | 0 | 0.0 | 0.0 | 0.00 | 0.00 | 0.00 | 53 | 1017.4 |
| 20260509030543 | 46 | 0 | 0.0 | 2.0 | 0.00 | 0.00 | 0.00 | 53 | 1017.4 |
| 20260509030049 | 46 | 0 | 0.0 | 4.0 | 0.00 | 0.00 | 0.00 | 53 | 1017.4 |
| 20260509025544 | 46 | 0 | 0.0 | 4.0 | 0.00 | 0.03 | 0.00 | 53 | 1017.5 |
| 20260509025043 | 46 | 0 | 1.0 | 3.0 | 0.00 | 0.03 | 0.00 | 52 | 1017.5 |
| 20260509024557 | 46 | 0 | 0.0 | 5.0 | 0.00 | 0.03 | 0.00 | 51 | 1017.5 |
| 20260509024044 | 46 | 0 | 0.0 | 6.0 | 0.00 | 0.03 | 0.00 | 52 | 1017.5 |
| 20260509023542 | 47 | 0 | 1.0 | 6.0 | 0.00 | 0.03 | 0.00 | 52 | 1017.5 |
| 20260509023054 | 47 | 80 | 0.0 | 8.0 | 0.00 | 0.03 | 0.00 | 52 | 1017.5 |
| 20260509022543 | 47 | 0 | 1.0 | 8.0 | 0.00 | 0.03 | 0.00 | 52 | 1017.5 |
| 20260509022049 | 47 | 100 | 2.0 | 8.0 | 0.00 | 0.03 | 0.00 | 51 | 1017.6 |
| 20260509021555 | 47 | 82 | 2.0 | 7.0 | 0.00 | 0.03 | 0.00 | 51 | 1017.6 |
| 20260509021046 | 47 | 46 | 1.0 | 7.0 | 0.00 | 0.03 | 0.00 | 51 | 1017.6 |
| 20260509020543 | 47 | 69 | 1.0 | 7.0 | 0.00 | 0.03 | 0.00 | 51 | 1017.7 |
| 20260509020050 | 47 | 0 | 1.0 | 7.0 | 0.00 | 0.03 | 0.00 | 51 | 1017.6 |
| 20260509015543 | 47 | 30 | 1.0 | 7.0 | 0.00 | 0.03 | 0.00 | 51 | 1017.6 |
| 20260509015045 | 47 | 174 | 0.0 | 4.0 | 0.00 | 0.03 | 0.00 | 52 | 1017.6 |
| 20260509014550 | 47 | 0 | 0.0 | 4.0 | 0.00 | 0.03 | 0.00 | 52 | 1017.7 |
| 20260509014044 | 47 | 104 | 0.0 | 7.0 | 0.00 | 0.03 | 0.00 | 53 | 1017.7 |
| 20260509013543 | 47 | 0 | 1.0 | 7.0 | 0.00 | 0.03 | 0.00 | 52 | 1017.8 |
| 20260509013050 | 47 | 173 | 2.0 | 8.0 | 0.00 | 0.03 | 0.00 | 53 | 1017.8 |
| 20260509012542 | 47 | 61 | 3.0 | 9.0 | 0.00 | 0.03 | 0.00 | 52 | 1017.9 |
| 20260509012045 | 47 | 96 | 3.0 | 9.0 | 0.00 | 0.03 | 0.00 | 52 | 1017.9 |
| 20260509011601 | 47 | 98 | 3.0 | 8.0 | 0.00 | 0.03 | 0.00 | 52 | 1017.9 |
| 20260509011042 | 47 | 92 | 3.0 | 9.0 | 0.00 | 0.03 | 0.00 | 52 | 1017.9 |
| 20260509010542 | 47 | 88 | 4.0 | 13.0 | 0.00 | 0.03 | 0.00 | 52 | 1017.9 |
| 20260509010057 | 47 | 84 | 4.0 | 13.0 | 0.00 | 0.03 | 0.00 | 52 | 1018.0 |
| 20260509005542 | 47 | 148 | 2.0 | 11.0 | 0.00 | 0.03 | 0.00 | 52 | 1018.1 |
| 20260509005043 | 47 | 82 | 4.0 | 11.0 | 0.00 | 0.03 | 0.00 | 51 | 1018.1 |
| 20260509004558 | 47 | 97 | 5.0 | 11.0 | 0.00 | 0.03 | 0.00 | 52 | 1018.1 |
| 20260509004045 | 47 | 129 | 4.0 | 10.0 | 0.00 | 0.03 | 0.00 | 52 | 1018.2 |
| 20260509003543 | 47 | 112 | 5.0 | 10.0 | 0.00 | 0.03 | 0.00 | 51 | 1018.2 |
| 20260509003051 | 47 | 105 | 5.0 | 10.0 | 0.00 | 0.03 | 0.00 | 51 | 1018.3 |
| 20260509002546 | 47 | 99 | 4.0 | 12.0 | 0.00 | 0.03 | 0.00 | 51 | 1018.3 |
| 20260509002043 | 47 | 98 | 5.0 | 13.0 | 0.00 | 0.03 | 0.00 | 52 | 1018.3 |
| 20260509001555 | 47 | 112 | 4.0 | 16.0 | 0.00 | 0.03 | 0.00 | 52 | 1018.3 |
| 20260509001043 | 47 | 96 | 6.0 | 16.0 | 0.00 | 0.03 | 0.00 | 51 | 1018.3 |
| 20260509000545 | 47 | 100 | 7.0 | 15.0 | 0.00 | 0.03 | 0.00 | 51 | 1018.4 |
| 20260509000052 | 47 | 109 | 7.0 | 15.0 | 0.00 | 0.03 | 0.00 | 51 | 1018.4 |
| 20260508235543 | 47 | 98 | 6.0 | 15.0 | 0.00 | 0.03 | 0.00 | 51 | 1018.5 |
| 20260508235042 | 47 | 95 | 5.0 | 13.0 | 0.00 | 0.03 | 0.00 | 52 | 1018.4 |
| 20260508234551 | 47 | 101 | 5.0 | 13.0 | 0.00 | 0.03 | 0.00 | 52 | 1018.4 |
| 20260508234046 | 47 | 78 | 6.0 | 13.0 | 0.00 | 0.03 | 0.00 | 51 | 1018.5 |
| 20260508233542 | 47 | 103 | 6.0 | 12.0 | 0.00 | 0.03 | 0.00 | 52 | 1018.5 |
| 20260508233054 | 47 | 106 | 5.0 | 11.0 | 0.00 | 0.03 | 0.00 | 52 | 1018.6 |
| 20260508232543 | 47 | 78 | 4.0 | 11.0 | 0.00 | 0.03 | 0.00 | 53 | 1018.7 |
| 20260508232042 | 47 | 78 | 5.0 | 10.0 | 0.00 | 0.03 | 0.00 | 51 | 1018.7 |
| 20260508231556 | 47 | 96 | 4.0 | 9.0 | 0.00 | 0.03 | 0.00 | 51 | 1018.9 |
| 20260508231042 | 47 | 87 | 3.0 | 11.0 | 0.00 | 0.03 | 0.00 | 51 | 1018.9 |
| 20260508230635 | 47 | 113 | 5.0 | 12.0 | 0.00 | 0.03 | 0.00 | 50 | 1018.9 |
| 20260508230050 | 47 | 109 | 7.0 | 12.0 | 0.00 | 0.03 | 0.00 | 49 | 1019.1 |
| 20260508225543 | 47 | 96 | 6.0 | 12.0 | 0.00 | 0.03 | 0.00 | 50 | 1019.0 |
| 20260508225043 | 46 | 101 | 6.0 | 10.0 | 0.00 | 0.03 | 0.00 | 50 | 1019.1 |
| 20260508224607 | 46 | 97 | 6.0 | 10.0 | 0.00 | 0.03 | 0.00 | 50 | 1019.3 |
| 20260508224043 | 46 | 97 | 5.0 | 9.0 | 0.00 | 0.03 | 0.00 | 51 | 1019.3 |
| 20260508223544 | 46 | 97 | 5.0 | 8.0 | 0.00 | 0.03 | 0.00 | 51 | 1019.4 |
| 20260508223052 | 46 | 87 | 3.0 | 8.0 | 0.00 | 0.03 | 0.00 | 52 | 1019.4 |
| 20260508222545 | 46 | 100 | 3.0 | 8.0 | 0.00 | 0.03 | 0.00 | 52 | 1019.5 |
| 20260508222042 | 46 | 0 | 1.0 | 5.0 | 0.00 | 0.03 | 0.00 | 52 | 1019.5 |
| 20260508221602 | 46 | 98 | 1.0 | 4.0 | 0.00 | 0.03 | 0.00 | 51 | 1019.5 |
| 20260508221043 | 46 | 0 | 0.0 | 3.0 | 0.00 | 0.03 | 0.00 | 51 | 1019.6 |
| 20260508220546 | 46 | 0 | 0.0 | 3.0 | 0.00 | 0.03 | 0.00 | 51 | 1019.6 |
| 20260508220049 | 46 | 0 | 0.0 | 7.0 | 0.00 | 0.03 | 0.00 | 51 | 1019.7 |
| 20260508215542 | 46 | 0 | 0.0 | 7.0 | 0.00 | 0.03 | 0.03 | 51 | 1019.6 |
| 20260508215043 | 46 | 109 | 1.0 | 6.0 | 0.00 | 0.03 | 0.03 | 51 | 1019.7 |
| 20260508214553 | 46 | 91 | 2.0 | 6.0 | 0.00 | 0.03 | 0.03 | 51 | 1019.7 |
| 20260508214043 | 46 | 0 | 1.0 | 10.0 | 0.00 | 0.03 | 0.03 | 51 | 1019.9 |
| 20260508213542 | 46 | 102 | 1.0 | 10.0 | 0.00 | 0.03 | 0.03 | 51 | 1019.9 |
| 20260508213049 | 46 | 98 | 0.0 | 10.0 | 0.00 | 0.03 | 0.03 | 51 | 1019.9 |
| 20260508212543 | 46 | 0 | 0.0 | 2.0 | 0.00 | 0.03 | 0.03 | 52 | 1019.9 |
| 20260508212042 | 46 | 0 | 0.0 | 6.0 | 0.00 | 0.03 | 0.03 | 52 | 1019.9 |
| 20260508211553 | 46 | 115 | 1.0 | 6.0 | 0.00 | 0.03 | 0.03 | 50 | 1020.0 |
| 20260508211042 | 46 | 103 | 1.0 | 6.0 | 0.00 | 0.03 | 0.03 | 49 | 1019.9 |
| 20260508210544 | 46 | 79 | 0.0 | 4.0 | 0.00 | 0.03 | 0.03 | 49 | 1019.9 |
| 20260508210049 | 46 | 0 | 0.0 | 4.0 | 0.00 | 0.03 | 0.03 | 49 | 1020.0 |
| 20260508205542 | 45 | 0 | 0.0 | 4.0 | 0.00 | 0.03 | 0.03 | 49 | 1020.0 |
| 20260508205042 | 46 | 0 | 0.0 | 4.0 | 0.00 | 0.03 | 0.03 | 48 | 1020.1 |
| 20260508204551 | 46 | 78 | 0.0 | 3.0 | 0.00 | 0.03 | 0.03 | 48 | 1020.2 |
| 20260508204042 | 46 | 96 | 0.0 | 6.0 | 0.00 | 0.03 | 0.03 | 48 | 1020.2 |
| 20260508203542 | 46 | 115 | 0.0 | 6.0 | 0.00 | 0.03 | 0.03 | 47 | 1020.3 |
| 20260508203059 | 46 | 0 | 1.0 | 6.0 | 0.00 | 0.03 | 0.03 | 47 | 1020.3 |
| 20260508202542 | 46 | 0 | 0.0 | 6.0 | 0.00 | 0.03 | 0.03 | 47 | 1020.2 |
| 20260508202043 | 46 | 79 | 1.0 | 6.0 | 0.00 | 0.03 | 0.03 | 47 | 1020.3 |
| 20260508201548 | 46 | 0 | 0.0 | 4.0 | 0.00 | 0.03 | 0.03 | 47 | 1020.3 |
| 20260508201043 | 46 | 0 | 0.0 | 3.0 | 0.00 | 0.03 | 0.03 | 47 | 1020.4 |
| 20260508200543 | 46 | 0 | 0.0 | 4.0 | 0.00 | 0.03 | 0.03 | 48 | 1020.4 |
| 20260508200105 | 46 | 0 | 0.0 | 4.0 | 0.00 | 0.03 | 0.03 | 47 | 1020.4 |
| 20260508195542 | 46 | 103 | 0.0 | 2.0 | 0.00 | 0.03 | 0.03 | 46 | 1020.5 |
| 20260508195043 | 46 | 0 | 0.0 | 2.0 | 0.00 | 0.03 | 0.03 | 46 | 1020.4 |
| 20260508194548 | 46 | 0 | 0.0 | 2.0 | 0.00 | 0.03 | 0.03 | 46 | 1020.5 |
| 20260508194043 | 46 | 0 | 0.0 | 4.0 | 0.00 | 0.03 | 0.03 | 46 | 1020.4 |
| 20260508193542 | 47 | 0 | 0.0 | 4.0 | 0.00 | 0.03 | 0.03 | 46 | 1020.5 |
| 20260508193058 | 47 | 107 | 0.0 | 3.0 | 0.00 | 0.03 | 0.03 | 46 | 1020.6 |
| 20260508192542 | 47 | 103 | 0.0 | 7.0 | 0.00 | 0.03 | 0.03 | 46 | 1020.5 |
| 20260508192043 | 47 | 109 | 0.0 | 7.0 | 0.00 | 0.03 | 0.03 | 46 | 1020.6 |
| 20260508191547 | 47 | 88 | 0.0 | 7.0 | 0.00 | 0.03 | 0.03 | 45 | 1020.6 |
| 20260508191042 | 47 | 101 | 2.0 | 7.0 | 0.00 | 0.03 | 0.03 | 45 | 1020.7 |
| 20260508190543 | 47 | 116 | 0.0 | 4.0 | 0.00 | 0.03 | 0.03 | 46 | 1020.7 |
| 20260508190050 | 47 | 102 | 1.0 | 7.0 | 0.00 | 0.03 | 0.03 | 46 | 1020.6 |
| 20260508185543 | 47 | 112 | 1.0 | 7.0 | 0.00 | 0.07 | 0.03 | 46 | 1020.7 |
| 20260508185043 | 47 | 101 | 2.0 | 8.0 | 0.00 | 0.07 | 0.03 | 45 | 1020.8 |
| 20260508184549 | 48 | 105 | 2.0 | 8.0 | 0.00 | 0.07 | 0.03 | 45 | 1020.8 |
| 20260508184044 | 48 | 104 | 2.0 | 6.0 | 0.00 | 0.07 | 0.03 | 44 | 1020.8 |
| 20260508183543 | 48 | 93 | 1.0 | 7.0 | 0.00 | 0.07 | 0.03 | 44 | 1020.9 |
| 20260508183106 | 48 | 136 | 1.0 | 9.0 | 0.00 | 0.07 | 0.03 | 44 | 1020.8 |
| 20260508182544 | 48 | 85 | 2.0 | 9.0 | 0.00 | 0.07 | 0.03 | 44 | 1020.9 |
| 20260508182046 | 48 | 313 | 2.0 | 6.0 | 0.00 | 0.07 | 0.03 | 43 | 1020.9 |
| 20260508181608 | 48 | 101 | 2.0 | 9.0 | 0.00 | 0.07 | 0.03 | 43 | 1020.9 |
| 20260508181043 | 48 | 100 | 3.0 | 9.0 | 0.00 | 0.07 | 0.03 | 42 | 1021.0 |
| 20260508180543 | 48 | 105 | 3.0 | 10.0 | 0.00 | 0.07 | 0.03 | 42 | 1021.0 |
| 20260508180049 | 49 | 88 | 2.0 | 10.0 | 0.00 | 0.07 | 0.03 | 43 | 1021.0 |
| 20260508175544 | 49 | 103 | 6.0 | 10.0 | 0.00 | 0.07 | 0.03 | 42 | 1021.0 |
| 20260508175044 | 49 | 113 | 4.0 | 9.0 | 0.00 | 0.07 | 0.03 | 41 | 1021.0 |
| 20260508174550 | 49 | 101 | 5.0 | 9.0 | 0.00 | 0.07 | 0.03 | 40 | 1021.0 |
| 20260508174043 | 49 | 95 | 3.0 | 8.0 | 0.00 | 0.07 | 0.03 | 41 | 1021.0 |
| 20260508173542 | 49 | 103 | 4.0 | 8.0 | 0.00 | 0.07 | 0.03 | 41 | 1021.0 |
| 20260508173103 | 49 | 113 | 4.0 | 9.0 | 0.00 | 0.07 | 0.03 | 41 | 1021.1 |
| 20260508172543 | 50 | 110 | 4.0 | 9.0 | 0.00 | 0.07 | 0.03 | 41 | 1021.2 |
| 20260508172042 | 50 | 98 | 3.0 | 10.0 | 0.00 | 0.07 | 0.03 | 40 | 1021.2 |
| 20260508171556 | 50 | 102 | 5.0 | 11.0 | 0.00 | 0.07 | 0.03 | 39 | 1021.2 |
| 20260508171041 | 50 | 98 | 6.0 | 11.0 | 0.00 | 0.07 | 0.03 | 39 | 1021.2 |
| 20260508170542 | 50 | 108 | 5.0 | 11.0 | 0.00 | 0.07 | 0.03 | 40 | 1021.2 |
| 20260508170053 | 50 | 101 | 4.0 | 12.0 | 0.00 | 0.07 | 0.03 | 39 | 1021.3 |
| 20260508165542 | 50 | 94 | 4.0 | 13.0 | 0.00 | 0.07 | 0.03 | 38 | 1021.2 |
| 20260508165042 | 50 | 99 | 8.0 | 13.0 | 0.00 | 0.07 | 0.03 | 37 | 1021.3 |
| 20260508164553 | 51 | 100 | 8.0 | 13.0 | 0.00 | 0.07 | 0.03 | 37 | 1021.3 |
| 20260508164043 | 51 | 88 | 6.0 | 11.0 | 0.00 | 0.07 | 0.03 | 37 | 1021.4 |
| 20260508163542 | 51 | 100 | 5.0 | 10.0 | 0.00 | 0.07 | 0.03 | 38 | 1021.4 |
| 20260508163048 | 51 | 298 | 5.0 | 9.0 | 0.00 | 0.07 | 0.03 | 38 | 1021.4 |
| 20260508162544 | 51 | 98 | 6.0 | 9.0 | 0.00 | 0.07 | 0.03 | 37 | 1021.4 |
| 20260508162045 | 51 | 96 | 5.0 | 10.0 | 0.00 | 0.07 | 0.03 | 37 | 1021.5 |
| 20260508161546 | 51 | 113 | 4.0 | 10.0 | 0.00 | 0.07 | 0.03 | 38 | 1021.5 |
| 20260508161043 | 51 | 96 | 5.0 | 10.0 | 0.00 | 0.07 | 0.03 | 37 | 1021.5 |
| 20260508160543 | 52 | 126 | 6.0 | 9.0 | 0.00 | 0.07 | 0.03 | 36 | 1021.5 |
| 20260508160053 | 52 | 108 | 6.0 | 11.0 | 0.00 | 0.07 | 0.03 | 37 | 1021.6 |
| 20260508155542 | 52 | 89 | 3.0 | 11.0 | 0.00 | 0.07 | 0.03 | 38 | 1021.5 |
| 20260508155043 | 52 | 105 | 5.0 | 11.0 | 0.00 | 0.07 | 0.03 | 37 | 1021.5 |
| 20260508154549 | 52 | 101 | 4.0 | 11.0 | 0.00 | 0.07 | 0.03 | 38 | 1021.5 |
| 20260508154041 | 52 | 105 | 6.0 | 11.0 | 0.00 | 0.07 | 0.03 | 36 | 1021.5 |
| 20260508153543 | 52 | 86 | 6.0 | 11.0 | 0.00 | 0.07 | 0.03 | 36 | 1021.5 |
| 20260508153051 | 53 | 111 | 5.0 | 10.0 | 0.00 | 0.07 | 0.03 | 36 | 1021.5 |
| 20260508152546 | 53 | 96 | 3.0 | 8.0 | 0.00 | 0.07 | 0.03 | 38 | 1021.5 |
| 20260508152042 | 53 | 96 | 2.0 | 8.0 | 0.00 | 0.07 | 0.03 | 38 | 1021.6 |
| 20260508151554 | 53 | 9 | 3.0 | 9.0 | 0.00 | 0.07 | 0.03 | 39 | 1021.7 |
| 20260508151043 | 53 | 85 | 2.0 | 9.0 | 0.00 | 0.07 | 0.03 | 38 | 1021.7 |
| 20260508150543 | 54 | 82 | 3.0 | 9.0 | 0.00 | 0.07 | 0.03 | 39 | 1021.7 |
| 20260508150122 | 54 | 106 | 1.0 | 11.0 | 0.00 | 0.07 | 0.03 | 41 | 1021.8 |
| 20260508145544 | 54 | 0 | 1.0 | 11.0 | 0.00 | 0.07 | 0.03 | 41 | 1021.8 |
| 20260508145042 | 54 | 89 | 4.0 | 11.0 | 0.00 | 0.07 | 0.03 | 40 | 1021.8 |
| 20260508144552 | 54 | 106 | 1.0 | 10.0 | 0.00 | 0.07 | 0.03 | 41 | 1021.9 |
| 20260508144042 | 54 | 5 | 3.0 | 10.0 | 0.00 | 0.07 | 0.03 | 39 | 1022.0 |
| 20260508143542 | 54 | 107 | 2.0 | 10.0 | 0.00 | 0.07 | 0.03 | 40 | 1021.9 |
| 20260508143052 | 54 | 102 | 1.0 | 8.0 | 0.00 | 0.07 | 0.03 | 41 | 1022.0 |
| 20260508142541 | 54 | 225 | 1.0 | 7.0 | 0.00 | 0.07 | 0.03 | 42 | 1022.1 |
| 20260508142045 | 54 | 103 | 1.0 | 9.0 | 0.00 | 0.07 | 0.03 | 42 | 1022.2 |
| 20260508141600 | 54 | 115 | 1.0 | 9.0 | 0.00 | 0.07 | 0.03 | 42 | 1022.2 |
| 20260508141043 | 54 | 0 | 4.0 | 9.0 | 0.00 | 0.07 | 0.03 | 40 | 1022.2 |
| 20260508140542 | 54 | 106 | 1.0 | 9.0 | 0.00 | 0.07 | 0.03 | 41 | 1022.3 |
| 20260508135543 | 54 | 95 | 6.0 | 9.0 | 0.00 | 0.07 | 0.03 | 38 | 1022.4 |
| 20260508135042 | 54 | 103 | 2.0 | 9.0 | 0.00 | 0.07 | 0.03 | 40 | 1022.4 |
| 20260508134551 | 54 | 97 | 2.0 | 9.0 | 0.00 | 0.07 | 0.03 | 42 | 1022.5 |
| 20260508134042 | 54 | 105 | 3.0 | 9.0 | 0.00 | 0.07 | 0.03 | 41 | 1022.6 |
| 20260508133542 | 54 | 86 | 3.0 | 9.0 | 0.00 | 0.07 | 0.03 | 41 | 1022.7 |
| 20260508133045 | 54 | 129 | 1.0 | 9.0 | 0.00 | 0.07 | 0.03 | 39 | 1022.7 |
| 20260508132542 | 55 | 106 | 5.0 | 9.0 | 0.00 | 0.07 | 0.03 | 40 | 1022.9 |
| 20260508132042 | 55 | 111 | 3.0 | 9.0 | 0.00 | 0.07 | 0.03 | 42 | 1022.8 |
| 20260508131545 | 54 | 0 | 2.0 | 9.0 | 0.00 | 0.07 | 0.03 | 43 | 1022.9 |
| 20260508131042 | 54 | 102 | 3.0 | 11.0 | 0.00 | 0.07 | 0.03 | 42 | 1022.9 |
| 20260508130541 | 54 | 130 | 4.0 | 11.0 | 0.00 | 0.07 | 0.03 | 39 | 1022.9 |
| 20260508130050 | 55 | 119 | 5.0 | 11.0 | 0.00 | 0.07 | 0.03 | 39 | 1023.0 |
| 20260508125542 | 55 | 107 | 4.0 | 12.0 | 0.00 | 0.07 | 0.03 | 41 | 1022.9 |
| 20260508125043 | 55 | 97 | 4.0 | 12.0 | 0.00 | 0.07 | 0.03 | 40 | 1023.0 |
| 20260508124548 | 56 | 111 | 3.0 | 11.0 | 0.00 | 0.07 | 0.03 | 37 | 1022.9 |
| 20260508124042 | 57 | 126 | 5.0 | 11.0 | 0.00 | 0.07 | 0.03 | 38 | 1023.0 |
| 20260508123545 | 57 | 97 | 4.0 | 8.0 | 0.00 | 0.07 | 0.03 | 39 | 1023.0 |
| 20260508123052 | 57 | 105 | 1.0 | 7.0 | 0.00 | 0.07 | 0.03 | 47 | 1022.9 |
| 20260508122542 | 57 | 0 | 1.0 | 8.0 | 0.00 | 0.07 | 0.03 | 47 | 1022.9 |
| 20260508122043 | 56 | 20 | 0.0 | 9.0 | 0.00 | 0.07 | 0.03 | 48 | 1022.9 |
| 20260508121550 | 56 | 98 | 3.0 | 9.0 | 0.00 | 0.07 | 0.03 | 49 | 1022.8 |
| 20260508121041 | 56 | 317 | 3.0 | 14.0 | 0.00 | 0.07 | 0.03 | 53 | 1022.8 |
| 20260508120541 | 56 | 49 | 6.0 | 14.0 | 0.00 | 0.07 | 0.03 | 51 | 1022.9 |
| 20260508120053 | 56 | 310 | 2.0 | 6.0 | 0.00 | 0.07 | 0.03 | 48 | 1022.9 |
| 20260508115542 | 57 | 0 | 1.0 | 8.0 | 0.00 | 0.07 | 0.03 | 49 | 1023.0 |
| 20260508115041 | 57 | 279 | 2.0 | 8.0 | 0.00 | 0.07 | 0.03 | 50 | 1022.8 |
| 20260508114603 | 57 | 109 | 2.0 | 6.0 | 0.00 | 0.07 | 0.03 | 47 | 1022.9 |
| 20260508114042 | 57 | 338 | 0.0 | 4.0 | 0.00 | 0.07 | 0.03 | 54 | 1022.9 |
| 20260508113542 | 56 | 0 | 1.0 | 7.0 | 0.00 | 0.07 | 0.03 | 51 | 1022.9 |